SCP
0 0 0 0 0 0 0 0 0 0 0 0 0 0 0 0 0 0 0 0 0 0 0 0 0 0 0 0 0 0 0 0 0 0 0 0 0 0
0 0 0 0 0 0 0 0 0 0 0 0 0 0 0 0 0 0 0 0 0 0 0 0 0 0 0 0 0 0 0 0 0 0 0 0 0 0
0 0 0 0 0 0 0 0 0 0 0 0 0 0 0 0 0 0 0 0 0 0 0 0 0 0 0 0 0 0 0 0 0 0 0 0 0 0
0 0 0 0 0 0 0 0 0 0 0 0 0 0 0 0 0 0 0 0 0 0 0 0 0 0 0 0 0 0 0 0 0 0 0 0 0 0
0 0 0 0 0 0 0 0 0 0 0 0 0 0 0 0 0 0 0 0 0 0 0 0 0 0 0 0 0 0 0 0 0 0 0 0 0 0
0 0 0 0 0 0 0 0 0 0 0 0 0 0 0 0 0 0 0 0 0 0 0 0 0 0 0 0 0 0 0 0 0 0 0 0 0 0
0 0 0 0 0 0 0 0 0 0 0 0 0 0 0 0 0 0 0 0 0 0 0 0 0 0 0 0 0 0 0 0 0 0 0 0 0 0
0 0 0 0 0 0 0 0 0 0 0 0 0 0 0 0 0 0 0 0 0 0 0 0 0 0 0 0 0 0 0 0 0 0 0 0 0 0
0 0 0 0 0 0 0 0 0 0 0 0 0 0 0 0 0 0 0 0 0 0 0 0 0 0 0 0 0 0 0 0 0 0 0 0 0 0
0 0 0 0 0 0 0 0 0 -0 0 0 0 0 0 0 0 0 0 0 0 0 0 0 0 0 0 0 0 0 0 0 0 0 0 0 0 0
0 0 0 0 0 0 0 0 0 0 0 0 0 0 0 0 0 0 0 0 0 0 0 0 0 0 0 0 0 0 0 0 0 0 0 0 0 0
0 0 0 0 0 0 0 0 0 0 0 0 0 0 0 0 0 0 0 0 0 0 0 0 0 0 0 0 0 0 0 0 0 0 0 0 0 0
0 0 0 0 0 0 0 0 0 0 0 0 0 0 0 0 0 0 0 0 0 0 0 0 0 0 0 0 0 0 0 0 0 0 0 0 0 0
0 0 0 0 0 0 0 0 0 0 0 0 0 0 0 0 0 0 0 0 0 0 0 0 0 0 0 0 0 0 0 0 0 0 0 0 0 0
0 0 0 0 0 0 0 0 0 0 0 0 0 0 0 0 0 0 0 0 0 0 0 0 0 0 0 0 0 0 0 0 0 0 0 0 0 0
0 0 0 0 0 0 0 0 0 0 0 0 0 0 0 0 0 0 0 0 0 0 0 0 0 0 0 0 0 0 0 0 0 0 0 0 0 0
0 0 0 0 0 0 0 0 0 0 0 0 0 0 0 0 0 0 0 0 0 0 0 0 0 0 0 0 0 0 0 0 0 0 0 0 0 0
0 0 0 0 0 0 0 0 0 0 0 0 0 0 0 0 0 0 0 0 0 0 0 0 0 0 0 0 0 0 0 0 0 0 0 0 0 0
0 0 0 0 0 0 0 0 0 0 0 0 0 0 0 0 0 0 0 0 0 0 0 0 0 0 0 0 0 0 0 0 0 0 0 0 0 0
0 0 0 0 0 0 0 0 0 0 0 0 0 0 0 0 0 0 0 0 0 0 0 0 0 0 0 0 0 0 0 0 0 0 0 0 0 0
0 0 0 0 0 0 0 0 0 0 0 0 0 0 0 0 0 0 0 0 0 0 0 0 0 0 0 0 0 0 0 0 0 0 0 0 0 0
0 0 0 0 0 0 0 0 0 0 0 0 0 0 0 0 0 0 0 0 0 0 0 0 0 0 0 0 0 0 0 0 0 0 0 0 0 0
0 0 0 0 0 0 0 0 0 0 0 0 0 0 0 0 0 0 0 0 0 0 0 0 0 0 0 0 0 0 0 0 0 0 0 0 0 0
Wind_Speed_500mb
12 19 18 16 13 11 11 18 32 32 25 27 18 13 6 16 25 27 19 15 12 11 11 11 13 12 15 24 35 44 50 59 74 73 74 82 79 73
12 16 19 14 9 9 12 14 20 31 29 35 21 12 7 15 15 19 12 9 11 10 12 14 12 13 15 17 19 27 36 45 55 69 69 111 82 85
15 13 17 13 9 9 12 12 14 20 25 28 17 9 1 11 15 18 11 13 9 10 11 12 15 19 15 15 17 19 21 31 35 39 44 50 54 76
15 13 12 12 12 5 3 5 12 19 18 15 11 7 5 12 17 25 19 11 8 7 8 9 16 18 14 12 13 12 14 18 22 30 39 37 41 52
18 14 13 13 13 11 9 6 9 15 20 18 13 11 7 10 20 25 14 12 15 12 6 8 14 15 15 12 10 10 12 12 15 17 20 23 39 42
20 15 14 14 12 11 9 7 8 9 11 12 11 14 7 16 23 17 13 7 10 7 2 9 16 15 20 15 10 7 10 10 14 16 22 29 28 29
21 16 17 11 11 12 6 5 14 17 15 16 17 16 14 13 14 16 20 15 13 15 21 23 18 21 17 12 12 13 8 7 13 20 22 26 29 29
15 17 22 15 11 12 3 7 11 9 11 12 12 10 5 12 13 13 18 16 21 13 16 15 13 12 14 15 9 12 13 13 14 18 23 29 32 29
15 20 24 15 13 9 9 10 10 5 12 8 0 7 12 16 18 21 25 26 23 16 20 22 16 15 18 23 18 15 15 18 15 18 20 19 21 22
17 24 16 12 14 9 10 11 12 9 9 7 12 11 18 23 27 31 32 35 36 30 25 30 26 25 25 24 25 35 33 24 21 22 23 23 23 24
26 25 14 10 10 11 7 9 6 5 8 12 15 20 23 21 28 29 30 34 37 35 33 33 31 31 33 33 41 32 26 21 28 31 33 36 35 40
29 23 12 9 10 10 9 7 3 4 13 16 16 14 13 18 22 35 32 28 29 28 20 24 31 33 40 37 28 38 39 46 44 46 46 41 37 43
26 19 16 17 12 10 9 5 2 6 4 3 8 13 22 28 32 26 35 33 23 22 24 30 36 37 39 45 49 46 44 47 49 48 49 53 54 53
26 20 22 24 14 10 12 9 12 18 19 18 25 26 29 32 33 29 35 31 22 24 30 33 34 35 33 34 39 38 35 35 39 40 37 35 36 38
30 27 22 28 19 12 13 14 21 28 31 30 29 31 33 31 30 28 35 24 20 24 22 17 13 19 25 29 34 37 43 43 35 41 38 40 43 41
32 21 21 22 18 16 17 18 27 27 27 28 31 34 35 30 28 29 28 19 24 21 15 14 21 28 27 31 33 37 36 39 46 45 47 49 45 41
29 24 19 21 20 17 17 23 22 22 24 25 27 30 29 29 27 26 21 21 23 27 25 23 27 33 30 34 35 36 38 49 50 47 49 54 51 50
36 29 23 25 21 18 24 31 26 23 24 25 22 21 26 26 28 29 23 24 27 29 33 29 34 36 35 33 33 38 40 50 56 55 54 58 54 46
36 27 24 21 20 24 30 26 22 26 30 28 26 20 25 25 27 26 21 23 24 26 32 37 36 33 40 46 49 47 53 53 59 58 50 41 46 45
27 21 19 16 21 27 19 22 29 31 26 23 27 27 27 27 27 23 22 21 23 31 39 41 36 33 43 52 61 64 61 59 56 56 50 37 40 34
30 22 20 21 25 23 25 31 32 29 27 27 30 29 31 31 28 21 20 20 27 36 32 25 27 36 47 55 63 67 62 48 53 44 40 41 42 35
26 22 17 22 28 27 29 27 26 32 34 30 27 32 33 26 15 14 17 20 27 30 32 37 40 46 49 47 56 58 56 56 38 35 27 35 40 41
24 18 19 22 21 22 25 27 30 31 31 32 30 21 8 11 8 10 16 16 25 29 36 45 49 50 49 50 48 44 42 32 26 17 16 16 29 40
Wind_Direction_500mb
228 243 260 276 265 251 242 198 198 179 187 181 206 213 291 325 322 318 314 307 301 311 340 333 327 299 266 251 246 250 246 241 240 244 245 244 241 240
241 263 259 264 261 272 237 224 204 205 187 192 203 209 292 333 339 339 332 298 296 311 322 331 326 322 297 282 271 261 254 251 247 246 253 240 242 236
246 244 247 258 269 271 264 239 218 200 206 177 185 191 304 332 339 357 319 319 299 309 338 342 344 338 322 297 285 272 269 260 263 262 257 246 253 250
232 221 225 232 254 228 214 194 170 154 167 170 166 192 298 327 332 334 332 324 305 303 340 2 340 329 317 325 331 304 281 273 272 267 262 267 266 256
241 223 219 211 217 199 187 187 177 166 162 179 187 195 242 291 316 323 309 294 295 316 302 327 346 310 301 293 280 312 328 309 293 289 292 279 263 274
255 221 210 203 228 221 215 211 217 223 206 204 214 195 234 303 323 335 346 334 312 331 266 290 329 316 309 300 302 305 316 316 332 325 310 302 293 279
221 208 186 185 204 202 214 232 244 260 244 239 238 245 284 312 330 348 353 344 323 301 298 282 284 298 329 306 296 291 277 318 331 336 334 330 318 292
226 206 189 189 208 207 261 279 277 257 234 234 243 260 313 345 342 345 354 356 356 1 327 345 329 303 310 321 330 290 269 280 308 323 324 328 328 318
237 218 199 200 223 238 288 292 242 180 136 128 40 302 336 340 336 331 327 318 309 324 316 326 332 308 321 322 314 301 285 280 286 298 306 311 323 323
231 213 197 229 221 277 284 255 209 200 193 270 282 285 309 311 310 312 306 297 297 297 297 300 319 310 303 309 309 312 296 273 256 262 260 272 288 302
204 214 236 246 262 273 240 213 200 212 250 278 288 292 304 318 317 316 316 298 298 298 284 283 301 298 298 303 309 314 297 272 264 265 268 269 268 274
209 215 233 247 246 222 198 184 198 286 302 295 290 294 311 315 308 318 311 314 305 301 298 274 293 296 302 304 305 306 291 286 291 288 282 279 275 272
209 223 210 189 176 197 195 199 245 261 274 233 276 283 290 291 295 311 325 320 293 282 276 287 297 300 300 303 304 304 298 292 290 288 282 283 276 268
214 215 201 200 200 198 203 219 265 278 280 276 278 286 289 291 285 307 322 326 309 297 287 287 291 299 308 315 318 321 317 314 306 299 293 291 284 281
221 208 218 221 220 237 224 263 278 288 290 288 283 282 278 275 277 301 317 317 313 307 292 298 315 320 329 328 323 327 326 328 326 317 310 299 290 281
211 213 213 208 216 224 248 282 302 290 274 269 272 271 272 263 277 292 304 305 316 323 311 327 334 331 325 329 329 330 328 319 329 323 308 300 300 298
218 217 228 226 215 232 263 294 275 263 272 266 270 272 260 260 267 299 287 296 302 311 316 316 315 311 308 314 318 324 319 319 321 312 311 305 294 289
217 232 232 212 234 242 277 299 263 266 286 294 284 271 257 266 282 300 281 284 290 302 308 303 300 297 301 304 318 333 335 335 330 317 307 304 298 299
216 212 218 229 249 273 289 278 266 293 298 297 300 281 270 276 285 295 265 281 290 300 307 307 313 291 292 296 310 313 320 321 326 323 317 305 298 305
210 211 221 240 264 287 259 269 289 299 305 311 310 296 282 288 297 281 271 284 291 303 310 305 301 299 299 306 306 313 316 306 323 315 315 308 304 311
201 220 243 256 271 254 262 283 297 307 306 301 295 281 278 283 283 263 268 289 309 318 316 320 318 311 306 305 307 314 324 316 319 311 310 308 313 314
213 230 265 258 235 250 277 292 299 305 310 308 292 285 287 283 247 262 285 305 323 321 319 317 316 313 306 308 313 316 318 320 316 313 300 300 301 295
214 235 249 230 245 277 293 299 306 311 311 306 301 297 209 216 239 275 303 321 319 323 327 327 321 315 310 311 312 315 318 320 325 323 326 302 309 306
Wind_Speed_850mb
12 19 18 16 13 11 11 18 32 32 25 27 18 13 6 16 25 27 19 15 12 11 11 11 13 12 15 24 35 44 50 59 74 73 74 82 79 73
12 16 19 14 9 9 12 14 20 31 29 35 21 12 7 15 15 19 12 9 11 10 12 14 12 13 15 17 19 27 36 45 55 69 69 111 82 85
15 13 17 13 9 9 12 12 14 20 25 28 17 9 1 11 15 18 11 13 9 10 11 12 15 19 15 15 17 19 21 31 35 39 44 50 54 76
15 13 12 12 12 5 3 5 12 19 18 15 11 7 5 12 17 25 19 11 8 7 8 9 16 18 14 12 13 12 14 18 22 30 39 37 41 52
18 14 13 13 13 11 9 6 9 15 20 18 13 11 7 10 20 25 14 12 15 12 6 8 14 15 15 12 10 10 12 12 15 17 20 23 39 42
20 15 14 14 12 11 9 7 8 9 11 12 11 14 7 16 23 17 13 7 10 7 2 9 16 15 20 15 10 7 10 10 14 16 22 29 28 29
21 16 17 11 11 12 6 5 14 17 15 16 17 16 14 13 14 16 20 15 13 15 21 23 18 21 17 12 12 13 8 7 13 20 22 26 29 29
15 17 22 15 11 12 3 7 11 9 11 12 12 10 5 12 13 13 18 16 21 13 16 15 13 12 14 15 9 12 13 13 14 18 23 29 32 29
15 20 24 15 13 9 9 10 10 5 12 8 0 7 12 16 18 21 25 26 23 16 20 22 16 15 18 23 18 15 15 18 15 18 20 19 21 22
17 24 16 12 14 9 10 11 12 9 9 7 12 11 18 23 27 31 32 35 36 30 25 30 26 25 25 24 25 35 33 24 21 22 23 23 23 24
26 25 14 10 10 11 7 9 6 5 8 12 15 20 23 21 28 29 30 34 37 35 33 33 31 31 33 33 41 32 26 21 28 31 33 36 35 40
29 23 12 9 10 10 9 7 3 4 13 16 16 14 13 18 22 35 32 28 29 28 20 24 31 33 40 37 28 38 39 46 44 46 46 41 37 43
26 19 16 17 12 10 9 5 2 6 4 3 8 13 22 28 32 26 35 33 23 22 24 30 36 37 39 45 49 46 44 47 49 48 49 53 54 53
26 20 22 24 14 10 12 9 12 18 19 18 25 26 29 32 33 29 35 31 22 24 30 33 34 35 33 34 39 38 35 35 39 40 37 35 36 38
30 27 22 28 19 12 13 14 21 28 31 30 29 31 33 31 30 28 35 24 20 24 22 17 13 19 25 29 34 37 43 43 35 41 38 40 43 41
32 21 21 22 18 16 17 18 27 27 27 28 31 34 35 30 28 29 28 19 24 21 15 14 21 28 27 31 33 37 36 39 46 45 47 49 45 41
29 24 19 21 20 17 17 23 22 22 24 25 27 30 29 29 27 26 21 21 23 27 25 23 27 33 30 34 35 36 38 49 50 47 49 54 51 50
36 29 23 25 21 18 24 31 26 23 24 25 22 21 26 26 28 29 23 24 27 29 33 29 34 36 35 33 33 38 40 50 56 55 54 58 54 46
36 27 24 21 20 24 30 26 22 26 30 28 26 20 25 25 27 26 21 23 24 26 32 37 36 33 40 46 49 47 53 53 59 58 50 41 46 45
27 21 19 16 21 27 19 22 29 31 26 23 27 27 27 27 27 23 22 21 23 31 39 41 36 33 43 52 61 64 61 59 56 56 50 37 40 34
30 22 20 21 25 23 25 31 32 29 27 27 30 29 31 31 28 21 20 20 27 36 32 25 27 36 47 55 63 67 62 48 53 44 40 41 42 35
26 22 17 22 28 27 29 27 26 32 34 30 27 32 33 26 15 14 17 20 27 30 32 37 40 46 49 47 56 58 56 56 38 35 27 35 40 41
24 18 19 22 21 22 25 27 30 31 31 32 30 21 8 11 8 10 16 16 25 29 36 45 49 50 49 50 48 44 42 32 26 17 16 16 29 40
Wind_Direction_850mb
228 243 260 276 265 251 242 198 198 179 187 181 206 213 291 325 322 318 314 307 301 311 340 333 327 299 266 251 246 250 246 241 240 244 245 244 241 240
241 263 259 264 261 272 237 224 204 205 187 192 203 209 292 333 339 339 332 298 296 311 322 331 326 322 297 282 271 261 254 251 247 246 253 240 242 236
246 244 247 258 269 271 264 239 218 200 206 177 185 191 304 332 339 357 319 319 299 309 338 342 344 338 322 297 285 272 269 260 263 262 257 246 253 250
232 221 225 232 254 228 214 194 170 154 167 170 166 192 298 327 332 334 332 324 305 303 340 2 340 329 317 325 331 304 281 273 272 267 262 267 266 256
241 223 219 211 217 199 187 187 177 166 162 179 187 195 242 291 316 323 309 294 295 316 302 327 346 310 301 293 280 312 328 309 293 289 292 279 263 274
255 221 210 203 228 221 215 211 217 223 206 204 214 195 234 303 323 335 346 334 312 331 266 290 329 316 309 300 302 305 316 316 332 325 310 302 293 279
221 208 186 185 204 202 214 232 244 260 244 239 238 245 284 312 330 348 353 344 323 301 298 282 284 298 329 306 296 291 277 318 331 336 334 330 318 292
226 206 189 189 208 207 261 279 277 257 234 234 243 260 313 345 342 345 354 356 356 1 327 345 329 303 310 321 330 290 269 280 308 323 324 328 328 318
237 218 199 200 223 238 288 292 242 180 136 128 40 302 336 340 336 331 327 318 309 324 316 326 332 308 321 322 314 301 285 280 286 298 306 311 323 323
231 213 197 229 221 277 284 255 209 200 193 270 282 285 309 311 310 312 306 297 297 297 297 300 319 310 303 309 309 312 296 273 256 262 260 272 288 302
204 214 236 246 262 273 240 213 200 212 250 278 288 292 304 318 317 316 316 298 298 298 284 283 301 298 298 303 309 314 297 272 264 265 268 269 268 274
209 215 233 247 246 222 198 184 198 286 302 295 290 294 311 315 308 318 311 314 305 301 298 274 293 296 302 304 305 306 291 286 291 288 282 279 275 272
209 223 210 189 176 197 195 199 245 261 274 233 276 283 290 291 295 311 325 320 293 282 276 287 297 300 300 303 304 304 298 292 290 288 282 283 276 268
214 215 201 200 200 198 203 219 265 278 280 276 278 286 289 291 285 307 322 326 309 297 287 287 291 299 308 315 318 321 317 314 306 299 293 291 284 281
221 208 218 221 220 237 224 263 278 288 290 288 283 282 278 275 277 301 317 317 313 307 292 298 315 320 329 328 323 327 326 328 326 317 310 299 290 281
211 213 213 208 216 224 248 282 302 290 274 269 272 271 272 263 277 292 304 305 316 323 311 327 334 331 325 329 329 330 328 319 329 323 308 300 300 298
218 217 228 226 215 232 263 294 275 263 272 266 270 272 260 260 267 299 287 296 302 311 316 316 315 311 308 314 318 324 319 319 321 312 311 305 294 289
217 232 232 212 234 242 277 299 263 266 286 294 284 271 257 266 282 300 281 284 290 302 308 303 300 297 301 304 318 333 335 335 330 317 307 304 298 299
216 212 218 229 249 273 289 278 266 293 298 297 300 281 270 276 285 295 265 281 290 300 307 307 313 291 292 296 310 313 320 321 326 323 317 305 298 305
210 211 221 240 264 287 259 269 289 299 305 311 310 296 282 288 297 281 271 284 291 303 310 305 301 299 299 306 306 313 316 306 323 315 315 308 304 311
201 220 243 256 271 254 262 283 297 307 306 301 295 281 278 283 283 263 268 289 309 318 316 320 318 311 306 305 307 314 324 316 319 311 310 308 313 314
213 230 265 258 235 250 277 292 299 305 310 308 292 285 287 283 247 262 285 305 323 321 319 317 316 313 306 308 313 316 318 320 316 313 300 300 301 295
214 235 249 230 245 277 293 299 306 311 311 306 301 297 209 216 239 275 303 321 319 323 327 327 321 315 310 311 312 315 318 320 325 323 326 302 309 306